Athens, OH

3:29 AM EDT on October 17, 2017 (GMT -0400)
Ohio University

Weather History for KUNI - December, 2013

Change the Weather History Date:

Tuesday, December 3, 2013

  Actual Average (KPKB) Record (KPKB)
Temperature  
Mean Temperature 40 °F -  
Max Temperature 52 °F 45 °F 78 °F (1982)
Min Temperature 29 °F 30 °F 1 °F (1976)
Degree Days  
Heating Degree Days 24    
Moisture  
Dew Point 38 °F    
Average Humidity 87    
Maximum Humidity 98    
Minimum Humidity 69    
Precipitation  
Precipitation 0.00 in - - ()
Sea Level Pressure  
Sea Level Pressure 29.86 in    
Wind  
Wind Speed 1 mph (SSE)    
Max Wind Speed 9 mph    
Max Gust Speed -    
Visibility 7 miles    
Events Fog    
Averages and records for this station are not official NWS values.
T = Trace of Precipitation, MM = Missing Value Source: NWS Daily Summary

Daily Weather History Graph

Daily Weather History Graph

Search for Another Location

Airport or City:

Trip Planner

Search our weather history database for the weather conditions in past years. The results will help you decide how hot, cold, wet, or windy it might be!

Date:

Astronomy

Dec. 03, 2013 Rise Set
Actual Time 7:31 AM EST 5:06 PM EST
Civil Twilight 7:01 AM EST 5:35 PM EST
Nautical Twilight 6:28 AM EST 6:09 PM EST
Astronomical Twilight 5:56 AM EST 6:41 PM EST
Moon 7:59 AM EST (12/3) 6:08 PM EST (12/3)
Length of Visible Light 10h 33m
Length of Day
9h 34m
New Moon, 1% of the Moon is Illuminated
Dec 3
New Moon
Dec 9
First Quarter
Dec 17
Full
Dec 25
Last Quarter
Jan 1
New

Hourly Weather History & Observations

Time (EST) Temp. Windchill Dew Point Humidity Pressure Visibility Wind Dir Wind Speed Gust Speed Precip Events Conditions
12:15 AM 40.5 °F - 36.9 °F 87% 29.84 in 10.0 mi Calm Calm - N/A   Light Drizzle
12:35 AM 40.1 °F - 36.7 °F 88% 29.84 in 10.0 mi Calm Calm - N/A   Overcast
12:55 AM 39.9 °F - 36.7 °F 88% 29.84 in 10.0 mi Calm Calm - N/A   Light Drizzle
1:15 AM 39.6 °F - 36.9 °F 90% 29.84 in 7.0 mi Calm Calm - N/A   Drizzle
1:35 AM 39.4 °F 37.2 °F 36.5 °F 89% 29.83 in 10.0 mi ENE 3.5 mph - N/A   Light Drizzle
1:55 AM 38.1 °F 35.7 °F 35.6 °F 91% 29.82 in 10.0 mi ENE 3.5 mph - N/A   Mostly Cloudy
2:15 AM 37.4 °F 34.9 °F 35.1 °F 91% 29.82 in 10.0 mi NNE 3.5 mph - N/A   Scattered Clouds
2:35 AM 36.9 °F 34.3 °F 35.1 °F 93% 29.82 in 7.0 mi North 3.5 mph - N/A   Scattered Clouds
2:55 AM 36.3 °F - 34.3 °F 93% 29.84 in 7.0 mi Calm Calm - N/A   Mostly Cloudy
3:15 AM 36.5 °F - 34.7 °F 93% 29.84 in 7.0 mi Calm Calm - N/A   Overcast
3:35 AM 36.9 °F - 35.1 °F 93% 29.85 in 7.0 mi Calm Calm - N/A   Overcast
3:55 AM 37.0 °F - 35.6 °F 95% 29.84 in 7.0 mi Calm Calm - N/A   Overcast
4:15 AM 36.5 °F - 34.9 °F 94% 29.84 in 7.0 mi Calm Calm - N/A   Mostly Cloudy
4:35 AM 34.7 °F - 33.3 °F 94% 29.84 in 4.0 mi Calm Calm - N/A   Scattered Clouds
4:55 AM 33.8 °F - 32.5 °F 95% 29.84 in 3.0 mi Calm Calm - N/A   Clear
5:15 AM 33.3 °F - 32.2 °F 96% 29.84 in 2.0 mi Calm Calm - N/A   Clear
5:35 AM 32.5 °F - 32.0 °F 98% 29.84 in 1.8 mi Calm Calm - N/A   Mist
5:55 AM 32.2 °F - 31.5 °F 97% 29.85 in 1.8 mi Calm Calm - N/A   Mist
6:15 AM 31.5 °F - 30.6 °F 96% 29.85 in 0.5 mi Calm Calm - N/A Fog Light Freezing Fog
6:35 AM 30.6 °F - 29.7 °F 96% 29.85 in 0.2 mi Calm Calm - N/A Fog Light Freezing Fog
6:55 AM 30.4 °F - 29.5 °F 96% 29.86 in 0.2 mi Calm Calm - N/A Fog Light Freezing Fog
7:15 AM 30.9 °F - 30.2 °F 97% 29.86 in 0.2 mi Calm Calm - N/A Fog Light Freezing Fog
7:35 AM 30.2 °F - 29.3 °F 96% 29.86 in 0.2 mi Calm Calm - N/A Fog Light Freezing Fog
7:55 AM 30.0 °F - 29.3 °F 97% 29.86 in 0.2 mi Calm Calm - N/A Fog Light Freezing Fog
8:15 AM 29.8 °F - 29.1 °F 97% 29.86 in 0.2 mi Calm Calm - N/A Fog Light Freezing Fog
8:35 AM 31.1 °F - 30.4 °F 97% 29.88 in 0.2 mi Calm Calm - N/A Fog Light Freezing Fog
8:55 AM 32.7 °F 29.6 °F 32.0 °F 97% 29.89 in 2.5 mi West 3.5 mph - N/A   Clear
9:15 AM 35.6 °F - 34.7 °F 97% 29.89 in 4.0 mi Calm Calm - N/A   Clear
9:35 AM 38.7 °F - 37.6 °F 96% 29.88 in 7.0 mi Calm Calm - N/A   Clear
9:55 AM 40.1 °F - 38.7 °F 95% 29.89 in 10.0 mi Calm Calm - N/A   Clear
10:15 AM 42.8 °F - 40.1 °F 90% 29.89 in 10.0 mi Calm Calm - N/A   Clear
10:35 AM 44.6 °F - 39.7 °F 83% 29.89 in 10.0 mi Calm Calm - N/A   Clear
10:55 AM 47.8 °F - 41.9 °F 80% 29.89 in 10.0 mi South 3.5 mph - N/A   Clear
11:15 AM 50.4 °F - 42.6 °F 75% 29.88 in 10.0 mi South 3.5 mph - N/A   Clear
11:35 AM 51.3 °F - 42.4 °F 72% 29.89 in 10.0 mi SW 5.8 mph - N/A   Clear
11:55 AM 52.0 °F - 42.6 °F 70% 29.89 in 10.0 mi South 6.9 mph - N/A   Clear
12:15 PM 52.9 °F - 43.7 °F 71% 29.88 in 10.0 mi South 8.1 mph - N/A   Scattered Clouds
12:35 PM 52.9 °F - 43.0 °F 69% 29.87 in 10.0 mi SSE 9.2 mph - N/A   Scattered Clouds
12:55 PM 52.5 °F - 43.3 °F 71% 29.88 in 10.0 mi SSW 8.1 mph - N/A   Scattered Clouds
1:15 PM 52.7 °F - 43.2 °F 70% 29.87 in 10.0 mi South 8.1 mph - N/A   Scattered Clouds
1:35 PM 52.2 °F - 43.0 °F 71% 29.87 in 10.0 mi SSE 6.9 mph - N/A   Mostly Cloudy
1:55 PM 52.2 °F - 42.8 °F 70% 29.86 in 10.0 mi South 6.9 mph - N/A   Mostly Cloudy
2:15 PM 52.2 °F - 42.8 °F 70% 29.86 in 10.0 mi South 4.6 mph - N/A   Scattered Clouds
2:35 PM 52.3 °F - 43.0 °F 70% 29.86 in 10.0 mi SSE 4.6 mph - N/A   Scattered Clouds
2:55 PM 52.3 °F - 43.0 °F 70% 29.86 in 10.0 mi SSE 4.6 mph - N/A   Scattered Clouds
3:15 PM 52.5 °F - 43.2 °F 70% 29.85 in 10.0 mi SE 4.6 mph - N/A   Scattered Clouds
3:35 PM 52.0 °F - 42.8 °F 71% 29.84 in 10.0 mi ESE 3.5 mph - N/A   Scattered Clouds
3:55 PM 51.8 °F - 42.8 °F 71% 29.84 in 10.0 mi Calm Calm - N/A   Clear
4:15 PM 51.8 °F - 42.4 °F 70% 29.85 in 10.0 mi Calm Calm - N/A   Clear
4:35 PM 51.3 °F - 42.4 °F 72% 29.86 in 10.0 mi Calm Calm - N/A   Clear
4:55 PM 49.1 °F - 41.9 °F 76% 29.86 in 10.0 mi Calm Calm - N/A   Clear
5:15 PM 47.1 °F - 41.5 °F 81% 29.86 in 10.0 mi Calm Calm - N/A   Clear
5:35 PM 46.9 °F - 41.9 °F 83% 29.86 in 10.0 mi Calm Calm - N/A   Clear
5:55 PM 44.6 °F - 40.5 °F 85% 29.86 in 10.0 mi Calm Calm - N/A   Clear
6:15 PM 45.0 °F - 40.8 °F 85% 29.85 in 10.0 mi Calm Calm - N/A   Clear
6:35 PM 43.9 °F - 40.6 °F 88% 29.86 in 10.0 mi Calm Calm - N/A   Clear
6:55 PM 43.3 °F - 40.3 °F 89% 29.85 in 10.0 mi Calm Calm - N/A   Clear
7:15 PM 41.9 °F - 39.0 °F 90% 29.86 in 7.0 mi Calm Calm - N/A   Clear
7:35 PM 41.4 °F - 39.4 °F 93% 29.86 in 7.0 mi Calm Calm - N/A   Clear
7:55 PM 40.1 °F - 37.9 °F 92% 29.86 in 7.0 mi Calm Calm - N/A   Clear
8:15 PM 39.7 °F - 37.9 °F 93% 29.86 in 7.0 mi Calm Calm - N/A   Clear
8:35 PM 39.2 °F - 37.2 °F 93% 29.86 in 7.0 mi Calm Calm - N/A   Clear
8:55 PM 38.3 °F - 36.3 °F 93% 29.86 in 4.0 mi Calm Calm - N/A   Clear
9:15 PM 37.4 °F - 36.0 °F 95% 29.87 in 4.0 mi Calm Calm - N/A   Scattered Clouds
9:35 PM 39.2 °F - 37.6 °F 94% 29.86 in 5.0 mi Calm Calm - N/A   Overcast
9:55 PM 38.3 °F - 36.7 °F 94% 29.86 in 7.0 mi Calm Calm - N/A   Mostly Cloudy
10:15 PM 39.2 °F - 37.6 °F 94% 29.86 in 7.0 mi Calm Calm - N/A   Scattered Clouds
10:35 PM 38.3 °F - 36.5 °F 93% 29.85 in 5.0 mi Calm Calm - N/A   Scattered Clouds
10:55 PM 37.4 °F 34.9 °F 36.0 °F 95% 29.86 in 4.0 mi West 3.5 mph - N/A   Scattered Clouds
11:15 PM 38.5 °F - 37.4 °F 96% 29.86 in 5.0 mi Calm Calm - N/A   Overcast
11:35 PM 39.6 °F - 38.3 °F 95% 29.86 in 5.0 mi Calm Calm - N/A   Overcast
11:55 PM 39.7 °F - 38.3 °F 95% 29.87 in 5.0 mi Calm Calm - N/A   Overcast